Regional Weather Roundup
Issued by NWS

Home | Current Version | Previous Version | Text Only | Print | Product List | Glossary Off
Versions: 1 2 3 4 5 6 7 8 9 10 11 12 13 14 15 16 17 18 19 20 21 22 23 24 25 26 27 28 29 30 31 32 33 34 35 36 37 38 39 40 41 42 43 44 45 46 47 48 49 50

000
ASUS43 KIND 070409
RWRIN

WEATHER ROUNDUP FOR INDIANA
NATIONAL WEATHER SERVICE INDIANAPOLIS IN
1100 PM EST SAT FEB 06 2016

NOTE: "FAIR" INDICATES FEW OR NO CLOUDS BELOW 12,000 FEET WITH NO
SIGNIFICANT WEATHER AND/OR OBSTRUCTIONS TO VISIBILITY.

* - STATION DOES NOT REPORT WEATHER SUCH AS PRECIPITATION OR FOG.

+ - STATION NOT QUALITY CONTROLLED BY THE NATIONAL WEATHER SERVICE.
    USE DATA WITH CAUTION...ESPECIALLY DEWPOINT AND RELATIVE
    HUMIDITY OBSERVATIONS.

INZ001>003-010>013-019-020-070500-
NORTHWEST INDIANA

CITY           SKY/WX    TMP DP  RH WIND       PRES   REMARKS
GARY /AIRPORT/ CLEAR     36  28  75 S7        30.11F
LA PORTE +     PTCLDY    33  31  92 CALM      30.12F
MICHIGAN CITY+ CLEAR     34  30  86 S6        30.11F WCI  29
MONTICELLO +   CLEAR     31  25  80 S3        30.14F
RENSSELAER +   CLEAR     32  27  80 S3        30.13F
VALPARAISO     CLEAR     33  27  78 S5        30.12F WCI  29

$$

LMZ046-743>745-070500-
SOUTHERN LAKE MICHIGAN

STATION/POSITION TIME  TEMP    WIND        PRES    WAVE
                       AIR SEA DIR/SP/G            HT
                 (UTC) (F)     (DEG/KT/KT) (MB)    (FT)
BURNS HARBOR     0300   36     190/ 10/ 13 1020.3F
MICHIGAN CITY    0300   37     160/ 13/ 15   N/A

$$

INZ004-005-014>016-021>024-070500-
NORTH CENTRAL INDIANA

CITY           SKY/WX    TMP DP  RH WIND       PRES   REMARKS
GOSHEN         CLEAR     33  26  75 S8        30.13F WCI  26
LOGANSPORT +   CLEAR     30  25  80 S6        30.15F WCI  24
PERU/GRISSOM   CLEAR     32  26  79 S7        30.13F WCI  25
ROCHESTER +    CLEAR     36  27  69 S6        30.14F
SOUTH BEND     CLEAR     30  25  81 S6        30.12F WCI  24
WARSAW +       CLEAR     30  27  86 CALM      30.13F

$$

INZ006>009-017-018-025>027-070500-
NORTHEAST INDIANA

CITY           SKY/WX    TMP DP  RH WIND       PRES   REMARKS
AUBURN +       CLEAR     30  25  80 CALM      30.16F
FORT WAYNE     PTCLDY    30  25  81 S9        30.16F WCI  22
HUNTINGTON +   CLEAR     32  23  69 CALM      30.16F

$$

INZ028-029-035-036-043>045-051>053-070500-
WEST CENTRAL INDIANA

CITY           SKY/WX    TMP DP  RH WIND       PRES   REMARKS
GREENCASTLE +  PTCLDY    34  21  60 S3        30.18F
LAFAYETTE      CLEAR     32  24  72 CALM      30.15F
TERRE HAUTE    CLEAR     35  25  66 S8        30.18F WCI  29

$$

INZ030>032-037>040-046>048-054>057-064-065-070500-
CENTRAL INDIANA

CITY           SKY/WX    TMP DP  RH WIND       PRES   REMARKS
FISHERS *+     PTCLDY    36  28  75 S7        30.17F
FRANKFORT +    PTCLDY    35  22  60 S8        30.16F WCI  28
GREENWOOD *+   PTCLDY    36  27  69 S6        30.19F
INDIANAPOLIS   CLEAR     34  24  67 S7        30.17F WCI  28
-EAGLE CREEK   CLEAR     36  24  62 CALM      30.17F
KOKOMO *+        N/A     32  25  74 S8        30.15F WCI  25
MARION +       CLEAR     32  20  61 S6        30.17F WCI  26
MT COMFORT *+  PTCLDY    34  25  69 S7        30.18F WCI  28
SHELBYVILLE    CLEAR     37  25  61 S8        30.19F
ZIONSVILLE +   PTCLDY    33  27  76 S9        30.17F WCI  26

$$

INZ033-034-041-042-049-050-058-059-070500-
EAST CENTRAL INDIANA

CITY           SKY/WX    TMP DP  RH WIND       PRES   REMARKS
MUNCIE         CLEAR     36  25  64 S8        30.17F

$$

INZ060-061-067>069-081>083-085>088-070500-
SOUTHWEST INDIANA

CITY           SKY/WX    TMP DP  RH WIND       PRES   REMARKS
EVANSVILLE     CLEAR     39  26  59 SW5       30.24F
HUNTINGBURG *+ PTCLDY    37  25  60 S6        30.24F
WASHINGTON +   CLEAR     39  26  59 S10       30.21S

$$

INZ062-063-066-070>080-084-089>092-070500-
SOUTH CENTRAL AND SOUTHEAST INDIANA

CITY           SKY/WX    TMP DP  RH WIND       PRES   REMARKS
BEDFORD +      CLEAR     37  28  70 S6        30.21F
BLOOMINGTON    CLEAR     40  25  55 SW8       30.19F
MADISON *+     CLEAR     32  27  80 CALM      30.25S
NORTH VERNON + PTCLDY    32  25  74 CALM      30.22F
SEYMOUR +      CLEAR     32  25  74 CALM      30.22F

$$




USA.gov is the U.S. government's official web portal to all federal, state and local government web resources and services.